Location: Omaha
(41.2590°N, 95.9380°W)
Time: 09:43:13
(UTC-05:00)

Vanguard 1 - All Passes

Search period start: 16 July 2018 00:00
Search period end: 26 July 2018 00:00
Orbit: 650 x 3832 km, 34.2° (Epoch: 15 July)

Date Brightness Start Highest point End Pass type
(mag) Time Alt. Az. Time Alt. Az. Time Alt. Az.
16 Jul - 01:39:43 10° SW 01:43:39 28° SSE 01:47:38 10° ESE visible
16 Jul - 03:58:53 10° WSW 04:03:06 37° S 04:08:49 10° ESE visible
16 Jul - 06:18:33 10° WSW 06:23:13 23° SSW 06:29:58 10° SSE daylight
16 Jul - 23:41:51 10° SSW 23:44:55 15° SSE 23:47:35 10° SE night (unlit)
17 Jul - 02:00:20 10° WSW 02:04:25 33° S 02:08:38 10° ESE visible
17 Jul - 04:19:45 10° WSW 04:23:56 33° S 04:29:38 10° SE visible
17 Jul - 06:40:04 10° WSW 06:44:12 18° SSW 06:49:45 10° SSE daylight
18 Jul - 00:01:43 10° SSW 00:05:43 20° SSE 00:09:05 10° ESE night (unlit)
18 Jul - 02:21:05 10° WSW 02:25:11 36° S 02:29:34 10° ESE visible
18 Jul - 04:40:42 10° WSW 04:44:46 28° SSW 04:50:17 10° SE visible
18 Jul - 07:02:25 10° SW 07:05:12 12° SSW 07:08:30 10° S daylight
18 Jul - 22:05:45 10° SSE 22:06:28 10° SSE 22:07:11 10° SSE visible
19 Jul - 00:22:02 10° SW 00:26:31 26° SSE 00:30:15 10° ESE visible
19 Jul - 02:41:54 10° WSW 02:45:58 35° S 02:50:27 10° ESE visible
19 Jul - 05:01:49 10° WSW 05:05:38 22° SSW 05:10:40 10° SSE visible
19 Jul - 22:23:30 10° SSW 22:27:24 15° SSE 22:30:33 10° SE visible
20 Jul - 00:42:37 10° SW 00:47:19 31° S 00:51:14 10° ESE night (unlit)
20 Jul - 03:02:46 10° WSW 03:06:45 33° S 03:11:15 10° ESE visible
20 Jul - 05:23:14 10° WSW 05:26:30 17° SSW 05:30:36 10° SSE visible
20 Jul - 22:43:10 10° SSW 22:48:19 21° SSE 22:52:10 10° ESE visible
21 Jul - 01:03:23 10° WSW 01:08:07 35° S 01:12:08 10° ESE night (unlit)
21 Jul - 03:23:44 10° WSW 03:27:32 28° SSW 03:31:53 10° SE visible
21 Jul - 05:45:31 10° SW 05:47:24 12° SSW 05:49:31 10° S daylight
21 Jul - 20:46:15 10° S 20:48:34 11° SSE 20:50:37 10° SE daylight
21 Jul - 23:03:24 10° SW 23:09:12 26° SSE 23:13:22 10° ESE visible
22 Jul - 01:24:15 10° WSW 01:28:54 36° S 01:32:58 10° ESE night (unlit)
22 Jul - 03:44:49 10° WSW 03:48:19 22° SSW 03:52:20 10° SE visible
22 Jul - 21:04:11 10° SSW 21:09:36 16° SSE 21:13:42 10° ESE daylight
22 Jul - 23:23:58 10° SW 23:30:04 32° S 23:34:23 10° ESE visible
23 Jul - 01:45:11 10° WSW 01:49:41 35° S 01:53:44 10° ESE night (unlit)
23 Jul - 04:06:09 10° WSW 04:09:06 17° SSW 04:12:26 10° SSE visible
23 Jul - 21:23:40 10° SSW 21:30:36 22° SSE 21:35:25 10° ESE visible
23 Jul - 23:44:44 10° WSW 23:50:55 37° S 23:55:16 10° ESE visible
24 Jul - 02:06:11 10° WSW 02:10:26 31° SSW 02:14:24 10° SE night (unlit)
24 Jul - 04:28:10 10° SW 04:29:53 12° SSW 04:31:43 10° S visible
24 Jul - 19:26:30 10° S 19:30:14 12° SSE 19:33:25 10° SE daylight
24 Jul - 21:43:46 10° SW 21:51:35 28° SSE 21:56:42 10° ESE visible
25 Jul - 00:05:40 10° WSW 00:11:45 40° S 00:16:05 10° ESE visible
25 Jul - 02:27:16 10° WSW 02:31:10 26° SSW 02:34:55 10° SE night (unlit)
25 Jul - 19:44:07 10° S 19:51:21 17° SSE 19:56:39 10° ESE daylight
25 Jul - 22:04:15 10° SW 22:12:32 34° SSE 22:17:45 10° ESE visible
